Home   Weather   Xiamen   Past weeks

Flag for China Past Weather in Xiamen, Fujian, China — Yesterday and Last 2 Weeks

Now
93 °F

Passing clouds.


Feels Like: 107 °F
Forecast: 80 / 93 °F
Wind: 8 mph from South

Location: Xiamen Airport

Current Time: Jul 24, 2017 at 4:57:08 pm

Latest Report: Jul 24, 2017 at 4:00 pm


Visibility: N/A

Pressure: 29.65 "Hg

Humidity: 59%

Dew Point: 77 °F

Location of XiamenLocation

Past Weather in Xiamen — Graph

°F

Xiamen Temperature Yesterday

Maximum temperature yesterday: 95 °F (at 2:00 pm)
Minimum temperature yesterday: 84 °F (at 12:00 am)
Average temperature yesterday: 88 °F

High & Low Weather Summary for the Past Weeks

 TemperatureHumidityPressure
High97 °F (Jul 21, 2:00 pm)89% (Jul 11, 4:00 am)29.95 "Hg (Jul 11, 4:00 am)
Low79 °F (Jul 17, 7:00 am)39% (Jul 21, 2:00 pm)29.65 "Hg (Jul 24, 3:00 pm)
Average87 °F68%29.82 "Hg
* Reported Jul 9 3:00 pm — Jul 24 3:00 pm, Xiamen. Weather by CustomWeather, © 2017

Note: Actual official high and low records may vary slightly from our data, if they occured in-between our weather recording intervals... More about our weather records

Advertising

Xiamen Weather History for the Previous 24 Hours

Scroll right to see more
 ConditionsComfort  
Time TempWeatherWind HumidityBarometerVisibility
3:00 pm
Mon, Jul 24
93 °FPassing clouds.10 mph56%29.65 "HgN/A
2:00 pm95 °FPassing clouds.6 mph53%29.68 "HgN/A
1:00 pm93 °FPassing clouds.6 mph56%29.68 "HgN/A
12:00 pm91 °FScattered clouds.8 mph56%29.71 "HgN/A
11:00 am93 °FScattered clouds.1 mph56%29.74 "HgN/A
10:00 am91 °FScattered clouds.3 mph56%29.74 "HgN/A
9:00 am90 °FSunny.3 mph59%29.74 "Hg10 mi
8:00 am90 °FPassing clouds.6 mph59%29.74 "HgN/A
7:00 am86 °FPassing clouds.6 mph70%29.74 "HgN/A
6:00 am84 °FPassing clouds.3 mph74%29.74 "HgN/A
5:00 am84 °FPassing clouds.3 mph70%29.74 "HgN/A
4:00 am84 °FClear.3 mph70%29.74 "Hg10 mi
3:00 am84 °FClear.6 mph70%29.71 "Hg10 mi
2:00 am84 °FClear.6 mph70%29.71 "Hg10 mi
1:00 am86 °FClear.3 mph66%29.74 "Hg10 mi
12:00 am86 °FClear.6 mph66%29.74 "Hg10 mi
11:00 pm
Sun, Jul 23
86 °FClear.3 mph66%29.74 "Hg10 mi
10:00 pm86 °FClear.6 mph66%29.77 "Hg10 mi
9:00 pm86 °FPassing clouds.6 mph66%29.74 "HgN/A
8:00 pm88 °FPassing clouds.6 mph62%29.74 "HgN/A
7:00 pm88 °FClear.8 mph66%29.71 "Hg10 mi
6:00 pm90 °FPassing clouds.8 mph63%29.71 "HgN/A
5:00 pm93 °FPassing clouds.10 mph49%29.71 "HgN/A
4:00 pm93 °FPassing clouds.10 mph49%29.71 "HgN/A
Weather by CustomWeather, © 2017

See weather overviewHow to use our weather pages